YZ-1 R/B, 43605

Orbit data source: Space-Track

YZ-1 R/B, 43605 is space debris originally from a launch on Fri, 24 Aug 2018 UTC launched from the Xichang Space Center, China (XSC). Debris objects in space refer to the collection of defunct objects orbiting the Earth. Examples of debris include non-operational satellites, rocket bodies, and fragments generated from explosions, collisions, or faulty payload assembly.

Loading next visibility...
Identifier
43605, 2018-067D
Orbit
Active
Country
Flag of CNCN / PRC
Related business
Manufacturer
CALT
Mission
Spacecraft
Bus & Motor
YZ-1, Unknown motor
Mass
~2,075 kg wet, ~2,075 kg dry
Launch date (UTC)
2018-08-24 (8 years ago)
Launch vehicle
Unknown
Launch site
Xichang Space Center, China (XSC)
Object type
Payload
Rocket body
Debris
Shape & HBR
Double Cone, 2.1 m
Radar Cross Section
5.890 m², Large (>1 m²)

Expand to show TLE details & history
Last TLE update: 3 weeks ago

TLE from 3 weeks ago
0 YZ-1 R/B
1 43605U 18067D   26239.57565541  .00000015  00000-0  00000+0 0  9995
2 43605  53.7973 186.1479 0055209  50.0032 310.4410  1.78798375 52286
Epoch: 2026-08-27T13:48Z
TLE epoch observation values (Epoch: 2026-08-27T13:48:56.627Z)
Latitude
0.00002°
Longitude
3.08978°
Altitude
22,194.198 km
Speed
3.742 km/s
True Right ascension
12h 24m 33s
True Declination
0° 00' 00"
Sunlit
Object was in daylight at epoch
Visualization orbit readout
Latitude
Unknown
Longitude
Unknown
Altitude
Unknown
Speed
Unknown
Apparent Right ascension
Unknown
Apparent Declination
Unknown
Sunlit
N/A
Visualization observer readout
Local Sidereal Time
00:53:22
Azimuth
Unknown
Elevation
Unknown
Doppler factor
Unknown
Orbital elements
Apogee altitude
22,454.523 km
Perigee altitude
22,137.906 km
Semi-major axis
28,674.351 km
Eccentricity
0.00552
Inclination
53.7973°
RAAN
186.1479°
Arg. of periapsis
50.0032°
True anomaly
309.95735°
Mean anomaly
310.441°
Eccentric anomaly
310.19939°
Mean motion
0.447 °/min
Orbital period
805.38 mins
BSTAR
0
Loading maneuver chart data...
Computing Atmospheric mass density...
Loading historical data...
Loading historical data...
Loading historical data...
Loading historical data...
Loading historical data...
Loading historical data...
Loading historical data...
Other satellites on launch #67 in the year 2018 (2018-08-24 UTC)

Documentation

Showing up to 5 results
|